JST261 YSCB-YSSY

Flight info

Callsign JST261
Flight time 0h 29m
Altitude 25000
Route CULIN Y59 RIVET
Aircraft A320/M-SDE3FGHIRWY/LB1

Departure

Time 2026-05-07 20:47
Airport Canberra Airport (YSCB)

Arrival

Time 2026-05-07 21:17
Airport Sydney Kingsford Smith International Airport (YSSY)
Time Latitude Longitude Altitude Speed Heading
2026-05-07 20:23 -35.30757 149.19137 1880 ft 0 kts 259°
2026-05-07 20:34 -35.30756 149.19139 1880 ft 2 kts 259°
2026-05-07 20:35 -35.30752 149.19170 1880 ft 4 kts 259°
2026-05-07 20:35 -35.30745 149.19202 1875 ft 4 kts 247°
2026-05-07 20:35 -35.30732 149.19229 1875 ft 4 kts 218°
2026-05-07 20:35 -35.30715 149.19239 1878 ft 0 kts 180°
2026-05-07 20:42 -35.30722 149.19239 1880 ft 3 kts 179°
2026-05-07 20:42 -35.30762 149.19239 1880 ft 9 kts 180°
2026-05-07 20:43 -35.30833 149.19239 1880 ft 12 kts 180°
2026-05-07 20:43 -35.30922 149.19238 1880 ft 14 kts 180°
2026-05-07 20:43 -35.31030 149.19239 1880 ft 17 kts 179°
2026-05-07 20:43 -35.31156 149.19241 1880 ft 20 kts 179°
2026-05-07 20:44 -35.31282 149.19239 1880 ft 13 kts 181°
2026-05-07 20:44 -35.31384 149.19238 1880 ft 16 kts 179°
2026-05-07 20:44 -35.31505 149.19241 1878 ft 19 kts 178°
2026-05-07 20:44 -35.31644 149.19240 1876 ft 21 kts 180°
2026-05-07 20:45 -35.31799 149.19241 1880 ft 20 kts 180°
2026-05-07 20:45 -35.31903 149.19240 1877 ft 9 kts 180°
2026-05-07 20:45 -35.31968 149.19262 1875 ft 11 kts 148°
2026-05-07 20:45 -35.32008 149.19322 1880 ft 8 kts 120°
2026-05-07 20:46 -35.32011 149.19399 1880 ft 11 kts 89°
2026-05-07 20:46 -35.31964 149.19449 1880 ft 11 kts 355°
2026-05-07 20:46 -35.31933 149.19447 1880 ft 3 kts 358°
2026-05-07 20:46 -35.31734 149.19445 1880 ft 65 kts 360°
2026-05-07 20:47 -35.31067 149.19442 1880 ft 123 kts 359°
2026-05-07 20:47 -35.30079 149.19454 2122 ft 149 kts 356°
2026-05-07 20:47 -35.29035 149.19493 2715 ft 152 kts 356°
2026-05-07 20:47 -35.27959 149.19568 3480 ft 157 kts 358°
2026-05-07 20:48 -35.26860 149.19698 4161 ft 161 kts 359°
2026-05-07 20:48 -35.25681 149.19851 4545 ft 181 kts 358°
2026-05-07 20:48 -35.24348 149.19997 4896 ft 204 kts 358°
2026-05-07 20:48 -35.22846 149.20158 5293 ft 229 kts 359°
2026-05-07 20:49 -35.21173 149.20343 5796 ft 253 kts 359°
2026-05-07 20:49 -35.19334 149.20550 6307 ft 278 kts 360°
2026-05-07 20:49 -35.17326 149.20780 6840 ft 301 kts
2026-05-07 20:49 -35.15200 149.21038 7651 ft 310 kts
2026-05-07 20:50 -35.13050 149.21307 8651 ft 312 kts
2026-05-07 20:50 -35.10896 149.21821 9617 ft 320 kts 14°
2026-05-07 20:50 -35.08784 149.22780 10409 ft 331 kts 18°
2026-05-07 20:50 -35.06585 149.23812 10731 ft 354 kts 18°
2026-05-07 20:51 -35.04205 149.24919 11072 ft 375 kts 18°
2026-05-07 20:51 -35.01738 149.26071 11717 ft 384 kts 18°
2026-05-07 20:51 -34.99232 149.27249 12437 ft 389 kts 18°
2026-05-07 20:51 -34.96688 149.28444 13168 ft 395 kts 17°
2026-05-07 20:52 -34.94099 149.29655 13884 ft 400 kts 17°
2026-05-07 20:52 -34.91479 149.30874 14536 ft 406 kts 17°
2026-05-07 20:52 -34.88820 149.32107 15163 ft 411 kts 17°
2026-05-07 20:52 -34.86138 149.33353 15798 ft 416 kts 17°
2026-05-07 20:53 -34.83416 149.34619 16410 ft 421 kts 17°
2026-05-07 20:53 -34.80667 149.35897 17022 ft 425 kts 17°
2026-05-07 20:53 -34.77939 149.37361 17626 ft 434 kts 26°
2026-05-07 20:53 -34.75409 149.39411 18214 ft 441 kts 38°
2026-05-07 20:54 -34.73196 149.42013 18837 ft 446 kts 50°
2026-05-07 20:54 -34.71378 149.45073 19398 ft 448 kts 62°
2026-05-07 20:54 -34.69901 149.48424 19975 ft 451 kts 65°
2026-05-07 20:54 -34.68436 149.51810 20541 ft 455 kts 64°
2026-05-07 20:55 -34.66948 149.55227 21102 ft 459 kts 64°
2026-05-07 20:55 -34.65458 149.58623 21632 ft 463 kts 64°
2026-05-07 20:55 -34.63935 149.62086 22175 ft 467 kts 64°
2026-05-07 20:55 -34.62394 149.65590 22635 ft 472 kts 64°
2026-05-07 20:56 -34.60844 149.69125 23071 ft 476 kts 63°
2026-05-07 20:56 -34.59290 149.72675 23210 ft 478 kts 64°
2026-05-07 20:56 -34.57728 149.76239 23233 ft 478 kts 63°
2026-05-07 20:56 -34.56166 149.79794 23230 ft 478 kts 63°
2026-05-07 20:57 -34.54599 149.83353 23200 ft 477 kts 63°
2026-05-07 20:57 -34.53030 149.86905 22927 ft 478 kts 63°
2026-05-07 20:57 -34.51459 149.90461 22705 ft 478 kts 63°
2026-05-07 20:57 -34.49884 149.94019 22434 ft 478 kts 63°
2026-05-07 20:58 -34.48318 149.97560 22162 ft 476 kts 63°
2026-05-07 20:58 -34.46752 150.01103 21901 ft 474 kts 63°
2026-05-07 20:58 -34.45223 150.04561 21582 ft 469 kts 63°
2026-05-07 20:58 -34.43687 150.08031 21002 ft 465 kts 63°
2026-05-07 20:59 -34.42162 150.11470 20471 ft 462 kts 63°
2026-05-07 20:59 -34.40644 150.14882 19924 ft 458 kts 63°
2026-05-07 20:59 -34.39135 150.18262 19406 ft 455 kts 62°
2026-05-07 20:59 -34.37632 150.21625 18845 ft 452 kts 62°
2026-05-07 21:00 -34.36140 150.24969 18256 ft 450 kts 63°
2026-05-07 21:00 -34.34662 150.28283 17683 ft 445 kts 63°
2026-05-07 21:00 -34.33202 150.31559 17092 ft 440 kts 62°
2026-05-07 21:00 -34.31761 150.34793 16527 ft 434 kts 63°
2026-05-07 21:01 -34.30336 150.37993 15941 ft 430 kts 63°
2026-05-07 21:01 -34.28920 150.41161 15339 ft 426 kts 63°
2026-05-07 21:01 -34.28425 150.42266 15137 ft 425 kts 63°
2026-05-07 21:01 -34.27802 150.43656 14873 ft 424 kts 63°
2026-05-07 21:02 -34.26397 150.46787 14303 ft 420 kts 63°
2026-05-07 21:02 -34.25008 150.49882 13650 ft 418 kts 63°
2026-05-07 21:02 -34.23628 150.52957 13048 ft 413 kts 63°
2026-05-07 21:02 -34.22268 150.55991 12465 ft 408 kts 63°
2026-05-07 21:03 -34.20924 150.58986 11878 ft 404 kts 63°
2026-05-07 21:03 -34.19592 150.61955 11284 ft 399 kts 63°
2026-05-07 21:03 -34.18293 150.64843 10757 ft 393 kts 63°
2026-05-07 21:03 -34.17017 150.67679 10622 ft 376 kts 63°
2026-05-07 21:04 -34.15797 150.70399 10501 ft 361 kts 64°
2026-05-07 21:04 -34.14622 150.73016 10380 ft 348 kts 63°
2026-05-07 21:04 -34.13485 150.75541 10268 ft 336 kts 63°
2026-05-07 21:04 -34.12382 150.77986 10052 ft 330 kts 63°
2026-05-07 21:05 -34.11291 150.80404 9773 ft 325 kts 63°
2026-05-07 21:05 -34.10214 150.82794 9402 ft 324 kts 63°
2026-05-07 21:05 -34.09141 150.85174 9078 ft 321 kts 63°
2026-05-07 21:05 -34.08085 150.87528 8741 ft 319 kts 64°
2026-05-07 21:06 -34.07032 150.89871 8416 ft 316 kts 63°
2026-05-07 21:06 -34.05985 150.92195 8112 ft 314 kts 64°
2026-05-07 21:06 -34.04947 150.94500 7794 ft 312 kts 64°
2026-05-07 21:06 -34.03998 150.96830 7480 ft 307 kts 75°
2026-05-07 21:07 -34.03658 150.99310 7172 ft 296 kts 96°
2026-05-07 21:07 -34.04004 151.01703 6863 ft 285 kts 115°
2026-05-07 21:07 -34.04923 151.03760 6557 ft 275 kts 133°
2026-05-07 21:07 -34.06202 151.05432 6206 ft 270 kts 139°
2026-05-07 21:08 -34.07577 151.06933 5890 ft 263 kts 150°
2026-05-07 21:08 -34.09175 151.07946 5529 ft 257 kts 164°
2026-05-07 21:08 -34.10884 151.08467 5262 ft 251 kts 173°
2026-05-07 21:08 -34.12580 151.08903 4993 ft 247 kts 172°
2026-05-07 21:09 -34.14252 151.09338 4731 ft 244 kts 172°
2026-05-07 21:09 -34.15906 151.09771 4500 ft 243 kts 172°
2026-05-07 21:09 -34.17560 151.10204 4263 ft 244 kts 172°
2026-05-07 21:09 -34.19201 151.10632 4033 ft 244 kts 172°
2026-05-07 21:10 -34.20815 151.11293 3844 ft 250 kts 156°
2026-05-07 21:10 -34.22173 151.12655 3648 ft 261 kts 134°
2026-05-07 21:10 -34.23028 151.14612 3460 ft 270 kts 111°
2026-05-07 21:10 -34.23198 151.16886 3257 ft 277 kts 86°
2026-05-07 21:11 -34.22590 151.19106 3047 ft 283 kts 60°
2026-05-07 21:11 -34.21329 151.20876 2984 ft 270 kts 44°
2026-05-07 21:11 -34.18685 151.23591 2800 ft 233 kts 24°
2026-05-07 21:12 -34.17193 151.24183 2708 ft 220 kts
2026-05-07 21:12 -34.15712 151.24202 2607 ft 208 kts 346°
2026-05-07 21:12 -34.14312 151.23876 2510 ft 203 kts 341°
2026-05-07 21:12 -34.12937 151.23513 2412 ft 201 kts 340°
2026-05-07 21:13 -34.11581 151.23158 2333 ft 198 kts 340°
2026-05-07 21:13 -34.10248 151.22810 2250 ft 195 kts 340°
2026-05-07 21:13 -34.08924 151.22464 2112 ft 193 kts 340°
2026-05-07 21:13 -34.07653 151.22137 2060 ft 178 kts 339°
2026-05-07 21:14 -34.06507 151.21842 1918 ft 161 kts 337°
2026-05-07 21:14 -34.05450 151.21566 1742 ft 151 kts 337°
2026-05-07 21:14 -34.04439 151.21301 1549 ft 146 kts 337°
2026-05-07 21:14 -34.03465 151.21047 1382 ft 138 kts 336°
2026-05-07 21:15 -34.02544 151.20808 1186 ft 133 kts 337°
2026-05-07 21:15 -34.01650 151.20574 997 ft 130 kts 338°
2026-05-07 21:15 -34.00763 151.20342 817 ft 130 kts 339°
2026-05-07 21:15 -33.99880 151.20110 633 ft 129 kts 341°
2026-05-07 21:16 -33.99029 151.19879 471 ft 124 kts 342°
2026-05-07 21:16 -33.98191 151.19652 294 ft 124 kts 347°
2026-05-07 21:16 -33.97355 151.19453 117 ft 125 kts 345°
2026-05-07 21:16 -33.96523 151.19232 27 ft 112 kts 346°
2026-05-07 21:17 -33.95936 151.19078 28 ft 62 kts 348°
2026-05-07 21:17 -33.95608 151.18994 27 ft 41 kts 348°
2026-05-07 21:17 -33.95410 151.18925 25 ft 26 kts 337°
2026-05-07 21:17 -33.95276 151.18832 29 ft 21 kts 323°
2026-05-07 21:18 -33.95210 151.18764 29 ft 11 kts 318°
2026-05-07 21:18 -33.95149 151.18698 30 ft 12 kts 318°
2026-05-07 21:18 -33.95088 151.18616 30 ft 14 kts 289°
2026-05-07 21:18 -33.95060 151.18499 30 ft 16 kts 308°
2026-05-07 21:19 -33.95053 151.18361 30 ft 19 kts 258°
2026-05-07 21:19 -33.95080 151.18213 30 ft 16 kts 258°
2026-05-07 21:19 -33.95103 151.18086 31 ft 15 kts 259°
2026-05-07 21:19 -33.95029 151.18013 30 ft 17 kts 347°
2026-05-07 21:20 -33.94903 151.17980 30 ft 20 kts 348°
2026-05-07 21:20 -33.94756 151.17941 30 ft 23 kts 347°
2026-05-07 21:20 -33.94640 151.17912 30 ft 0 kts 349°
2026-05-07 21:20 -33.94622 151.17908 30 ft 5 kts 348°
2026-05-07 21:21 -33.94573 151.17893 30 ft 8 kts 349°
2026-05-07 21:21 -33.94501 151.17883 30 ft 12 kts
2026-05-07 21:21 -33.94408 151.17910 30 ft 16 kts 352°
2026-05-07 21:21 -33.94290 151.17880 30 ft 19 kts 348°
2026-05-07 21:22 -33.94172 151.17850 30 ft 14 kts 347°
2026-05-07 21:22 -33.94119 151.17836 29 ft 7 kts 348°
2026-05-07 21:22 -33.94054 151.17819 29 ft 12 kts 347°
2026-05-07 21:22 -33.93962 151.17795 29 ft 15 kts 347°
2026-05-07 21:23 -33.93852 151.17766 30 ft 18 kts 348°
2026-05-07 21:23 -33.93749 151.17781 30 ft 12 kts 13°
2026-05-07 21:23 -33.93657 151.17807 30 ft 13 kts 15°
2026-05-07 21:23 -33.93581 151.17826 30 ft 10 kts 10°
2026-05-07 21:24 -33.93507 151.17840 30 ft 8 kts
2026-05-07 21:24 -33.93488 151.17795 30 ft 4 kts 280°
2026-05-07 21:24 -33.93485 151.17776 30 ft 2 kts 280°
2026-05-07 21:24 -33.93485 151.17772 30 ft 1 kts 280°
2026-05-07 21:25 -33.93485 151.17771 30 ft 0 kts 280°